Regional Weather Roundup
Issued by NWS

Home | Current Version | Previous Version | Text Only | Print | Product List | Glossary Off
Versions: 1 2 3 4 5 6 7 8 9 10 11 12 13 14 15 16 17 18 19 20 21 22 23 24 25 26 27 28 29 30 31 32 33 34 35 36 37 38 39 40 41 42 43 44 45 46 47 48 49 50

000
ASUS45 KABQ 170901
RWRNM
NEW MEXICO REGIONAL WEATHER ROUNDUP
NATIONAL WEATHER SERVICE ALBUQUERQUE NM
200 AM MST SAT FEB 17 2018

NOTE: "FAIR" MEANS FEW OR NO CLOUDS BELOW 12,000 FEET AGL WITH NO
       SIGNIFICANT WEATHER OR OBSTRUCTIONS TO VISION.

      THIS PRODUCT IS RELEASED AS TWO VERSIONS.  ONE VERSION NEAR
      THE TOP OF THE HOUR CONTAINING PRELIMINARY DATA FROM ALBUQUERQUE
      AND OTHER STATIONS.  A FINAL VERSION WITH ADDITIONAL DATA IS
      ISSUED ABOUT 10 MINUTES AFTER THE HOUR.

NMZ501-503-504-510>518-171000-
NORTHWEST PLATEAU/NORTHCENTRAL MOUNTAINS

CITY           SKY/WX    TMP DP  RH WIND       PRES   REMARKS
FARMINGTON     FAIR      20  15  81 NE7       30.17R WCI  11
LOS ALAMOS     FAIR      34  28  76 CALM      30.15S
SANTA FE       FAIR      31  30  96 N8        30.13S WCI  23
TAOS           FAIR      30  25  81 CALM      30.16R
ANGEL FIRE     FAIR      29  20  70 W23G33    30.05F WCI  15

$$
NMZ402-403-502-505>509-171000-
WESTCENTRAL MOUNTAINS/SOUTHWEST MOUNTAINS

CITY           SKY/WX    TMP DP  RH WIND       PRES   REMARKS
GALLUP         CLOUDY    34  32  92 W3        30.19S
GRANTS         FAIR      31  28  87 W10G18    30.19S WCI  22
SILVER CITY    CLOUDY    44  43  95 NW10      30.18R

$$
NMZ407-409-411-412-171000-
SOUTHERN DESERTS

CITY           SKY/WX    TMP DP  RH WIND       PRES   REMARKS
DEMING         NOT AVBL
LAS CRUCES     CLOUDY    47  47 100 SW3       30.16S
ALAMOGORDO     FOG       46  46 100 CALM      30.16S VSB 3/4
T OR C         CLOUDY    46  45  96 CALM      30.14F

$$
NMZ519>523-171000-
CENTRAL VALLEYS/CENTRAL HIGHLANDS

CITY           SKY/WX    TMP DP  RH WIND       PRES   REMARKS
ALBUQUERQUE    CLOUDY    40  39  97 VRB3      30.16R
MORIARTY ARPT  FAIR      41  35  80 W15       30.13F
CLINES CORNERS FAIR      32  30  92 W25       30.09R WCI  19
BELEN          FOG       38  38 100 CALM      30.15F VSB 1
SOCORRO        FAIR      41  40  97 CALM      30.15S

$$
NMZ524>526-539-540-171000-
SOUTHCENTRAL MOUNTAINS

CITY           SKY/WX    TMP DP  RH WIND       PRES   REMARKS
RUIDOSO        NOT AVBL

$$
NMZ527>531-171000-
NORTHEAST HIGHLANDS/NORTHEAST PLAINS

CITY           SKY/WX    TMP DP  RH WIND       PRES   REMARKS
LAS VEGAS      FAIR      29  19  66 SW13      29.98F WCI  19
RATON          FAIR      28  19  69 E7        29.91S WCI  21
CLAYTON        FAIR      35  31  85 W9        29.88F WCI  28

$$
NMZ532>537-171000-
EASTCENTRAL PLAINS

CITY           SKY/WX    TMP DP  RH WIND       PRES   REMARKS
SANTA ROSA     FAIR      43  35  72 SW16      30.01F
TUCUMCARI      FAIR      43  38  82 SW14      29.93F
CANNON AFB     FAIR      37  37 100 SW12      30.03F WCI  29
CLOVIS AIRPORT NOT AVBL

$$
NMZ028-029-538-171000-
SOUTHEAST PLAINS

CITY           SKY/WX    TMP DP  RH WIND       PRES   REMARKS
ROSWELL        FAIR      41  41 100 S7        30.07F
ARTESIA        FAIR      41  41 100 S10       30.09F FOG
CARLSBAD       FAIR      41  41 100 S6        30.10F
HOBBS          MOCLDY    39  37  93 SW10      30.09F WCI  32


$$




USA.gov is the U.S. government's official web portal to all federal, state and local government web resources and services.